Wind_Speed
43 44 46 47 47 48 48 48 49 49 50 51 52 53 54 55 57 58 60 61 62 64 66 68 70 72 73 75 78 80 82 85 87 85 86 88 89 89 88 87 84 82 79
45 46 47 48 49 49 49 50 51 51 52 53 54 55 56 58 59 60 61 63 64 66 68 70 72 74 75 78 80 82 84 86 89 88 86 86 85 84 82 80 76 73 69
46 47 48 49 50 50 51 52 53 53 54 55 56 57 58 59 60 62 63 65 66 69 71 72 74 76 78 80 82 84 85 87 88 88 85 82 79 76 73 70 67 64 60
48 49 49 50 51 52 53 54 55 55 56 57 58 59 59 61 62 64 66 67 69 71 73 74 76 79 80 82 83 85 86 86 85 83 80 75 70 67 64 61 58 56 53
48 49 50 52 53 54 55 56 56 57 58 59 59 60 61 63 65 67 68 70 72 73 75 77 79 80 82 84 85 85 84 83 80 77 72 66 61 58 56 54 51 49 47
49 50 51 52 54 55 56 57 57 58 58 59 60 62 63 65 68 70 72 73 74 76 78 79 81 82 83 84 84 83 81 78 74 69 64 59 55 52 50 48 46 44 42
50 51 52 53 54 55 56 57 58 58 59 60 62 64 66 68 71 73 74 75 77 78 80 82 83 83 83 82 81 79 75 71 67 62 57 53 50 47 45 43 42 41 39
51 52 53 54 55 56 57 57 58 59 61 62 64 66 69 71 74 75 76 78 79 81 82 83 83 82 82 80 77 73 68 63 59 56 52 48 46 43 42 41 39 38 35
52 52 53 54 55 56 57 58 59 60 62 64 67 69 71 73 76 78 80 81 82 82 83 83 82 81 78 76 72 66 60 55 52 49 47 44 42 41 40 38 37 35 33
51 52 53 54 55 56 57 59 61 63 65 67 69 72 75 77 79 81 83 84 84 83 82 80 79 77 73 68 63 58 52 48 45 43 41 40 39 38 37 36 35 34 33
50 51 53 54 56 57 59 61 63 66 68 70 72 75 78 80 82 84 86 86 85 83 80 77 73 69 64 59 55 50 46 43 41 39 38 36 36 35 35 34 34 34 33
51 52 54 56 57 59 61 64 66 69 71 74 76 78 80 83 85 86 86 85 84 81 76 71 66 60 56 51 47 44 42 40 39 37 35 34 33 32 32 32 32 32 32
52 53 55 57 59 62 64 67 69 72 76 78 81 82 83 84 85 86 84 82 79 75 69 64 58 52 48 44 42 41 39 38 37 36 34 32 32 31 31 30 30 30 30
53 55 57 59 62 64 67 70 74 77 80 82 84 85 85 85 84 82 80 76 72 67 61 55 50 45 42 40 39 38 38 37 36 34 32 31 30 30 29 29 28 28 27
55 57 60 62 65 68 71 74 78 81 84 85 86 87 87 84 81 78 75 70 65 59 53 47 42 39 37 37 37 36 36 35 33 32 31 30 29 28 28 27 27 26 26
58 60 63 66 69 72 75 78 80 83 84 86 86 86 84 81 77 72 68 62 57 51 46 41 38 36 35 34 34 34 34 32 31 30 29 28 27 27 27 26 26 25 25
62 65 67 70 74 77 80 83 83 82 83 83 83 81 78 75 71 66 61 55 49 44 40 37 36 35 34 33 33 32 31 30 29 28 27 27 27 26 26 25 25 25 24
66 69 72 75 78 82 84 85 85 84 82 79 77 75 72 68 64 59 54 48 42 39 37 35 34 34 33 32 31 30 28 27 27 27 26 26 26 25 25 25 25 25 24
69 73 76 79 83 85 85 85 84 83 80 76 72 67 64 61 57 52 48 43 38 35 34 34 33 33 32 30 29 27 26 25 25 25 25 25 25 24 24 24 24 24 24
73 77 81 84 85 85 85 83 81 78 74 70 65 62 58 54 49 45 41 38 36 34 33 32 32 31 30 28 27 26 25 24 24 24 24 24 24 24 23 23 23 23 24
78 82 85 86 86 85 82 79 75 72 68 63 59 56 53 49 44 39 36 34 33 32 31 30 29 28 27 26 25 24 24 23 24 24 24 24 24 24 23 23 23 23 23
83 85 86 85 84 81 77 73 69 65 61 58 54 51 47 43 39 36 33 31 30 30 29 28 27 26 25 25 24 23 23 23 23 24 24 24 24 23 23 23 23 23 23
85 85 84 82 79 75 71 67 63 59 56 53 50 46 41 38 35 33 31 29 29 29 28 27 26 25 25 24 23 23 23 23 24 24 24 24 24 24 24 23 23 24 24
85 83 81 77 73 69 64 60 57 54 52 49 45 41 38 35 33 30 29 28 27 27 26 26 25 24 24 23 24 24 23 23 24 24 24 24 24 24 24 24 24 24 24
82 79 76 71 67 62 58 55 52 50 47 44 40 37 34 32 30 28 27 26 26 25 25 24 24 23 23 23 23 23 23 23 24 24 23 23 24 24 24 24 24 25 25
77 73 68 64 60 56 54 52 49 46 42 39 36 33 31 29 27 26 25 25 24 23 23 23 23 23 23 23 23 23 23 23 23 23 23 23 23 24 24 25 25 26 26
Wind_Direction
290 291 292 294 294 294 294 294 294 294 294 294 293 293 292 292 293 293 293 294 294 295 295 296 296 296 296 297 297 297 297 297 296 296 295 295 294 292 291 290 289 287 285
291 292 293 294 294 294 294 294 294 294 294 294 293 293 293 294 294 295 295 295 296 297 297 298 298 298 299 299 299 299 299 298 298 298 297 296 294 293 291 290 288 287 285
292 292 293 294 294 294 295 295 295 295 295 294 294 295 295 295 296 296 297 298 298 299 300 300 300 300 300 300 300 300 300 299 299 298 298 296 294 293 291 289 288 286 285
292 293 294 294 294 294 295 295 295 295 295 295 296 296 297 297 298 298 299 300 301 301 302 302 302 301 301 301 301 301 300 300 299 299 298 296 294 292 290 288 286 285 284
293 294 294 295 295 295 295 295 296 296 296 297 297 298 299 299 300 301 301 302 302 302 302 303 303 303 303 303 302 302 301 300 299 298 297 296 294 291 289 287 285 283 282
294 295 295 295 295 295 295 296 296 297 298 298 299 299 300 301 302 303 303 303 304 304 304 304 304 304 304 303 303 302 301 300 299 298 296 295 293 291 288 286 284 282 280
295 295 295 295 295 296 296 297 297 298 299 299 300 301 302 303 303 304 304 305 305 305 305 305 305 304 304 303 302 302 301 299 298 296 295 294 292 290 288 286 284 283 281
296 296 296 296 296 297 297 298 298 299 300 301 302 303 303 304 304 305 305 305 306 306 306 306 305 305 304 303 302 301 299 297 295 295 294 294 292 290 288 286 285 283 281
297 297 297 297 297 298 299 299 300 301 302 303 303 304 304 305 305 305 306 306 306 307 307 306 305 304 303 302 301 299 297 295 293 293 293 292 290 289 288 286 285 283 281
298 298 298 299 299 299 300 301 302 302 303 304 305 305 305 306 306 306 306 307 307 307 307 306 305 304 303 301 300 298 296 294 292 292 291 291 290 288 287 286 285 284 283
299 299 300 300 300 301 302 303 303 304 304 305 305 306 307 307 307 307 307 307 307 307 307 305 304 303 301 300 298 297 295 294 293 292 290 289 288 286 285 285 286 286 285
300 300 301 301 302 303 303 304 305 305 305 306 306 307 307 307 307 307 308 308 308 307 307 305 304 302 300 298 297 296 295 294 294 293 292 290 287 286 285 285 286 286 286
301 301 302 303 304 304 305 305 306 306 306 307 307 307 307 308 308 308 308 308 307 307 306 305 303 301 299 297 296 295 295 295 294 293 292 290 288 287 286 286 285 286 285
302 303 304 304 305 305 306 306 307 307 307 308 308 308 308 308 308 308 308 308 307 306 305 303 301 299 297 295 295 294 294 294 294 292 291 290 288 288 287 287 286 285 285
304 304 305 305 306 306 307 307 308 308 308 308 308 309 309 310 310 309 309 308 307 305 303 301 299 297 295 294 294 294 294 293 293 293 292 291 289 288 288 287 286 286 285
305 305 306 306 307 307 307 308 308 309 309 309 310 310 310 311 311 310 309 308 307 305 303 301 300 298 297 295 295 295 294 293 293 293 292 291 290 289 288 287 286 286 286
306 306 307 307 308 308 308 308 309 309 309 310 310 310 310 311 311 311 309 308 306 303 302 301 300 299 298 297 296 295 294 292 293 293 293 292 290 290 289 287 287 286 286
307 308 308 309 309 309 309 309 309 309 310 310 309 309 309 310 310 310 309 307 304 302 301 301 300 300 299 298 297 296 294 293 293 293 293 292 291 290 289 288 287 286 285
308 308 309 309 310 310 310 310 310 310 310 310 310 309 309 309 309 308 307 305 302 301 300 300 300 300 299 298 297 296 295 293 293 293 294 294 293 292 291 290 288 285 284
309 309 310 310 310 310 310 310 310 310 310 310 310 310 309 309 308 306 303 302 301 300 300 300 300 300 299 298 297 296 294 293 293 294 294 295 294 293 292 291 289 287 284
309 310 310 310 310 310 310 310 310 310 310 310 311 310 310 309 308 306 303 300 299 300 300 300 300 300 299 298 298 296 295 295 295 295 295 295 295 294 293 292 291 289 287
310 310 310 310 310 310 310 310 310 310 310 310 310 310 309 308 307 306 303 301 300 301 301 300 300 299 298 299 298 297 296 295 296 297 296 296 295 294 293 292 292 291 290
310 311 311 311 311 310 310 310 310 309 309 309 309 308 307 306 305 304 302 301 301 301 301 301 300 299 298 299 299 297 296 296 297 297 297 296 295 294 292 292 291 291 290
311 311 311 311 311 310 310 310 310 309 309 308 308 307 306 305 304 303 301 301 301 301 301 301 301 300 299 299 299 299 298 297 297 298 297 296 295 294 292 291 291 291 290
310 310 311 311 311 311 310 310 310 309 308 308 307 306 304 304 303 302 301 301 301 301 300 301 301 301 301 301 301 301 300 299 299 299 298 297 295 294 293 292 291 290 289
311 311 311 310 310 310 310 311 310 309 308 307 306 305 304 303 301 301 301 301 301 301 301 301 302 302 303 303 302 302 302 301 301 300 300 299 297 296 294 293 291 290 289
Height
5737 5734 5730 5725 5721 5717 5712 5708 5703 5699 5694 5689 5684 5679 5674 5669 5664 5658 5653 5647 5641 5635 5628 5621 5614 5606 5598 5590 5581 5573 5563 5553 5547 5549 5540 5528 5516 5506 5497 5489 5482 5476 5471
5727 5723 5719 5714 5710 5705 5701 5696 5691 5686 5681 5676 5671 5666 5660 5655 5649 5643 5638 5631 5625 5618 5611 5603 5595 5587 5579 5570 5560 5551 5541 5530 5521 5518 5515 5503 5492 5480 5472 5464 5457 5452 5448
5716 5712 5707 5703 5698 5693 5688 5683 5678 5673 5668 5663 5657 5652 5646 5640 5634 5627 5621 5615 5608 5600 5592 5584 5576 5567 5558 5549 5539 5529 5518 5508 5497 5489 5486 5477 5468 5457 5449 5442 5436 5432 5428
5705 5701 5696 5691 5686 5681 5676 5671 5665 5660 5655 5649 5643 5637 5631 5624 5618 5611 5604 5597 5590 5582 5573 5564 5555 5545 5536 5527 5517 5506 5495 5485 5475 5465 5459 5453 5445 5437 5428 5423 5420 5415 5412
5694 5689 5684 5679 5674 5669 5663 5658 5652 5646 5640 5634 5628 5622 5615 5608 5601 5594 5587 5580 5572 5564 5554 5544 5534 5524 5513 5503 5493 5483 5472 5462 5452 5443 5437 5431 5425 5418 5411 5406 5403 5401 5398
5682 5677 5672 5667 5662 5656 5650 5645 5639 5633 5626 5620 5613 5606 5599 5592 5584 5576 5568 5561 5552 5543 5534 5524 5513 5502 5491 5480 5469 5458 5448 5438 5430 5422 5417 5412 5407 5401 5395 5391 5388 5386 5385
5670 5665 5660 5655 5649 5643 5637 5631 5625 5619 5612 5606 5598 5591 5583 5575 5566 5558 5550 5541 5532 5522 5512 5502 5491 5480 5467 5457 5448 5438 5428 5417 5409 5403 5399 5395 5390 5386 5381 5378 5375 5372 5371
5658 5653 5647 5642 5636 5630 5624 5617 5611 5605 5598 5591 5583 5575 5567 5558 5548 5540 5530 5522 5512 5502 5490 5479 5468 5457 5445 5434 5426 5418 5410 5401 5393 5386 5382 5379 5375 5372 5368 5365 5362 5361 5360
5646 5640 5635 5629 5623 5617 5610 5604 5597 5590 5583 5575 5567 5558 5550 5541 5530 5520 5509 5501 5492 5481 5469 5457 5444 5434 5424 5413 5404 5398 5392 5386 5379 5373 5369 5366 5362 5359 5355 5353 5351 5349 5348
5633 5628 5622 5615 5609 5603 5597 5590 5582 5575 5568 5559 5551 5541 5531 5521 5510 5499 5488 5478 5470 5461 5449 5437 5423 5412 5403 5394 5385 5380 5375 5371 5366 5362 5358 5354 5350 5347 5344 5341 5339 5337 5337
5621 5615 5609 5602 5596 5589 5582 5575 5567 5560 5552 5543 5535 5525 5513 5501 5490 5478 5466 5454 5444 5436 5427 5416 5405 5394 5385 5377 5369 5364 5360 5356 5353 5350 5347 5343 5340 5337 5334 5331 5329 5327 5326
5608 5602 5596 5589 5582 5575 5567 5560 5551 5542 5534 5525 5515 5506 5495 5481 5468 5456 5445 5432 5420 5411 5403 5395 5385 5376 5368 5362 5356 5352 5348 5344 5341 5338 5335 5332 5330 5327 5324 5321 5319 5317 5315
5595 5589 5582 5575 5568 5560 5551 5543 5534 5524 5514 5505 5494 5485 5475 5463 5449 5435 5423 5411 5400 5389 5382 5374 5367 5360 5354 5349 5345 5340 5336 5333 5330 5327 5324 5322 5319 5316 5314 5312 5309 5307 5305
5582 5575 5568 5561 5553 5545 5535 5526 5516 5505 5494 5483 5472 5461 5452 5442 5428 5415 5404 5393 5382 5372 5364 5358 5352 5346 5341 5337 5334 5330 5326 5322 5319 5316 5314 5311 5309 5306 5304 5302 5300 5298 5296
5568 5561 5553 5545 5537 5529 5520 5509 5497 5486 5471 5459 5448 5437 5426 5418 5407 5394 5382 5373 5364 5356 5349 5344 5340 5335 5331 5327 5323 5319 5316 5312 5309 5306 5303 5301 5299 5296 5294 5292 5290 5289 5287
5554 5546 5538 5530 5520 5511 5501 5493 5480 5466 5454 5439 5424 5412 5402 5392 5383 5374 5364 5355 5347 5340 5335 5331 5327 5324 5320 5317 5313 5309 5306 5302 5299 5296 5294 5292 5289 5287 5285 5283 5281 5280 5278
5538 5530 5522 5512 5502 5492 5481 5470 5461 5452 5437 5421 5407 5393 5382 5373 5364 5355 5347 5340 5334 5328 5323 5320 5316 5313 5309 5306 5303 5299 5296 5293 5290 5287 5285 5283 5281 5278 5276 5274 5273 5271 5269
5522 5513 5504 5494 5483 5472 5460 5448 5436 5425 5417 5408 5393 5377 5366 5357 5348 5340 5332 5327 5322 5317 5313 5309 5306 5303 5299 5296 5293 5290 5287 5284 5281 5279 5277 5274 5272 5270 5268 5266 5264 5263 5261
5505 5495 5485 5475 5463 5451 5438 5426 5415 5403 5393 5384 5375 5364 5352 5343 5335 5327 5320 5315 5311 5308 5304 5300 5296 5293 5289 5286 5283 5281 5278 5276 5273 5271 5268 5266 5264 5262 5260 5258 5256 5254 5253
5488 5477 5465 5454 5443 5430 5418 5406 5395 5384 5373 5364 5355 5346 5338 5330 5323 5317 5310 5305 5301 5298 5295 5291 5288 5284 5280 5277 5275 5272 5270 5268 5265 5263 5261 5258 5256 5253 5251 5249 5248 5246 5245
5470 5459 5446 5433 5421 5409 5398 5386 5375 5365 5356 5348 5340 5331 5323 5316 5311 5306 5301 5296 5292 5289 5286 5282 5279 5276 5272 5269 5267 5264 5262 5260 5257 5255 5253 5250 5248 5245 5243 5241 5240 5238 5237
5450 5438 5426 5414 5401 5390 5378 5368 5358 5349 5340 5333 5326 5319 5311 5305 5300 5295 5291 5287 5284 5280 5277 5274 5271 5268 5265 5262 5259 5257 5254 5252 5250 5247 5245 5242 5240 5237 5235 5233 5232 5230 5228
5429 5417 5406 5394 5382 5371 5361 5352 5342 5334 5326 5319 5312 5306 5300 5295 5290 5286 5282 5279 5276 5272 5269 5266 5263 5260 5257 5254 5252 5249 5247 5245 5242 5239 5237 5234 5232 5230 5227 5225 5223 5222 5220
5408 5396 5385 5374 5364 5354 5345 5336 5328 5320 5313 5306 5300 5295 5290 5285 5281 5277 5274 5271 5268 5264 5261 5258 5255 5253 5250 5247 5244 5242 5239 5237 5234 5231 5229 5226 5224 5222 5219 5217 5215 5213 5211
5388 5377 5366 5356 5346 5338 5329 5322 5314 5307 5300 5294 5289 5284 5280 5276 5273 5269 5266 5263 5260 5257 5254 5251 5248 5245 5243 5240 5237 5234 5232 5229 5226 5224 5221 5218 5216 5213 5211 5209 5207 5204 5202
5369 5358 5349 5339 5331 5323 5315 5308 5302 5295 5289 5284 5279 5275 5271 5268 5264 5262 5259 5255 5253 5250 5247 5244 5241 5239 5236 5233 5230 5227 5224 5221 5218 5215 5213 5210 5208 5205 5202 5200 5198 5195 5193